Weather in Rodniki

Russia / Moscow Oblast     55°38′59″N   38°04′04″E
temp.,
°C
wind,
m/s
gust,
m/s
humid.,
%
clouds,
%
prec.,
mm/h
press.,
hPa
HPBL,
m
19 january, wed
wed1900:00−11nnw4119384 0.0 1016386
03:00−15wnw289746 0.0 1017127
06:00−15wnw259795 0.0 101870
09:00−18w229924 0.0 101816
12:00−10wsw249012 0.0 1017141
15:00−9ssw369284 0.0 1016189
18:00−11ssw3109276 0.0 1015185
21:00−10ssw4119294 0.0 1013249
20 january, thu
thu2000:00−10ssw41195100 0.0 1012283
03:00−7ssw51295100 0.1 1010357
06:00−5ssw51294100 0.1 1008416
09:00−5ssw51294100 0.1 1006448
12:00−4s51394100 0.0 1006455
15:00−3s61492100 0.1 1004596
18:00−5s61492100 0.1 1003578
21:00−5s61493100 0.3 1002659
21 january, fri
fri2100:00−5s61393100 1.1 1002632
03:00−5sse51395100 1.9 1002597
06:00−5sse51194100 0.7 1001464
09:00−5sse4996100 1.3 1002396
12:00−5se4996100 1.6 1001442
15:00−6se4995100 2.8 1000556
18:00−6se41095100 0.8 1000525
21:00−7ese499599 1.1 1000330
22 january, sat
sat2200:00−6ese3796100 0.9 1001332
03:00−9sse269858 1.2 1003118
06:00−14ese279985 0.0 1005107
09:00−12ese399698 0.1 1008229
12:00−8ese4894100 0.1 1010346
15:00−7e4894100 0.3 1012403
18:00−8ese499599 0.1 1015339
21:00−13ene229894 0.1 101825
23 january, sun
sun2300:00−13ene239983 0.1 102152
03:00−17ene24100100 0.1 102361
06:00−19nne1110097 0.0 102517
09:00−18ne239998 0.1 102863
12:00−12nne119491 0.1 1029121
15:00−10n139580 0.1 1030185
18:00−16n1110088 0.0 10329
21:00−19n2210098 0.1 103413